Terug naar catalogus

STARLINK-34598

ActiefCommunicatieVLEO
NORAD 64759·PAYLOAD·🇺🇸 United States

Gelanceerd Jul 8, 2025 vanaf Cape Canaveral Space Force Station

Loading…

Volgende Passages (komende 24 uur)

TLE

VersSource: CelesTrak SupGP

Epoch: Sep 15, 2026, 04:01 UTC

1 64759C 25147E   26258.16784722 -.00027222  00000+0 -80416-3 0  2586
2 64759  53.1584  78.9562 0001177  81.1163 280.6788 15.34408857    17

Volg STARLINK-34598 in realtime met AllMySat

Download on the App Store